Eagle Creek, IN

6:12 AM EDT on September 26, 2017 (GMT -0400)
Eagle Creek

Weather History for KEYE - October, 2012

Change the Weather History Date:

Wednesday, October 17, 2012

  Actual Average Record
Temperature  
Mean Temperature 60 °F 54 °F  
Max Temperature 68 °F 64 °F 82 °F (2016)
Min Temperature 52 °F 45 °F 34 °F (2015)
Degree Days  
Heating Degree Days 5 11  
Month to date heating degree days 203 146  
Since 1 July heating degree days 304 207  
Cooling Degree Days 0 0  
Month to date cooling degree days 0 12  
Year to date cooling degree days 1338 1055  
Growing Degree Days 9 (Base 50)    
Moisture  
Dew Point 51 °F    
Average Humidity 66    
Maximum Humidity 83    
Minimum Humidity 48    
Precipitation  
Precipitation 0.38 in 0.10 in 0.38 in (2012)
Month to date precipitation 2.66 1.73  
Year to date precipitation 31.92 32.63  
Sea Level Pressure  
Sea Level Pressure 29.61 in    
Wind  
Wind Speed 8 mph (South)    
Max Wind Speed 18 mph    
Max Gust Speed 30 mph    
Visibility 9 miles    
Events Rain , Thunderstorm    
T = Trace of Precipitation, MM = Missing Value Source: NWS Daily Summary

Daily Weather History Graph

Daily Weather History Graph

Search for Another Location

Airport or City:

Trip Planner

Search our weather history database for the weather conditions in past years. The results will help you decide how hot, cold, wet, or windy it might be!

Date:

Astronomy

Oct. 17, 2012 Rise Set
Actual Time 7:58 AM EDT 7:02 PM EDT
Civil Twilight 7:30 AM EDT 7:29 PM EDT
Nautical Twilight 6:59 AM EDT 8:00 PM EDT
Astronomical Twilight 6:28 AM EDT 8:31 PM EDT
Moon 10:31 AM EDT (10/17) 8:37 PM EDT (10/17)
Length of Visible Light 11h 58m
Length of Day
11h 04m
Waxing Crescent, 7% of the Moon is Illuminated
Oct 17
Waxing Crescent
Oct 21
First Quarter
Oct 29
Full
Nov 6
Last Quarter
Nov 13
New

Hourly Weather History & Observations

Time (EDT) Temp. Dew Point Humidity Pressure Visibility Wind Dir Wind Speed Gust Speed Precip Events Conditions
12:53 AM 59.0 °F 46.9 °F 64% 29.72 in 10.0 mi SSE 5.8 mph - N/A   Clear
1:53 AM 60.1 °F 48.9 °F 67% 29.72 in 10.0 mi South 6.9 mph - N/A   Clear
2:53 AM 60.1 °F 48.9 °F 67% 29.72 in 10.0 mi SSW 8.1 mph - N/A   Clear
3:53 AM 57.9 °F 48.0 °F 70% 29.71 in 10.0 mi SSW 5.8 mph - N/A   Clear
4:53 AM 55.9 °F 48.0 °F 75% 29.71 in 10.0 mi Calm Calm - N/A   Clear
5:53 AM 54.0 °F 48.0 °F 80% 29.71 in 10.0 mi South 4.6 mph - N/A   Clear
6:53 AM 53.1 °F 46.9 °F 80% 29.70 in 10.0 mi South 3.5 mph - N/A   Clear
7:53 AM 52.0 °F 46.9 °F 83% 29.71 in 10.0 mi Calm Calm - N/A   Clear
8:53 AM 53.1 °F 46.9 °F 80% 29.72 in 10.0 mi SSE 3.5 mph - N/A   Clear
9:53 AM 57.9 °F 48.0 °F 70% 29.71 in 10.0 mi South 10.4 mph - N/A   Clear
10:53 AM 62.1 °F 48.9 °F 62% 29.70 in 10.0 mi South 12.7 mph 19.6 mph N/A   Clear
11:53 AM 64.9 °F 48.9 °F 56% 29.67 in 10.0 mi South 10.4 mph 26.5 mph N/A   Clear
12:53 PM 66.9 °F 48.9 °F 52% 29.66 in 10.0 mi South 13.8 mph 19.6 mph N/A   Clear
1:53 PM 66.9 °F 46.9 °F 49% 29.64 in 10.0 mi South 13.8 mph 24.2 mph N/A   Overcast
2:53 PM 66.9 °F 46.9 °F 49% 29.61 in 10.0 mi South 12.7 mph 26.5 mph N/A   Mostly Cloudy
3:23 PM 66.2 °F 46.4 °F 49% 29.61 in 10.0 mi South 10.4 mph 24.2 mph N/A Thunderstorm Overcast
3:51 PM 59.0 °F 51.8 °F 77% 29.61 in 1.5 mi South 9.2 mph 20.7 mph 0.13 in Rain , Thunderstorm Heavy Thunderstorms and Rain
3:53 PM 57.9 °F 51.1 °F 78% 29.60 in 1.2 mi South 6.9 mph 20.7 mph 0.15 in Rain , Thunderstorm Heavy Thunderstorms and Rain
4:01 PM 57.2 °F 51.8 °F 82% 29.59 in 3.0 mi SSE 8.1 mph - 0.01 in Rain , Thunderstorm Light Thunderstorms and Rain
4:31 PM 60.8 °F 51.8 °F 72% 29.59 in 10.0 mi Calm Calm - 0.01 in   Overcast
4:53 PM 60.1 °F 53.1 °F 78% 29.58 in 10.0 mi SSE 4.6 mph - 0.01 in   Overcast
5:16 PM 60.8 °F 53.6 °F 77% 29.57 in 10.0 mi SSE 8.1 mph - N/A Thunderstorm Overcast
5:40 PM 60.8 °F 53.6 °F 77% 29.57 in 10.0 mi SSE 8.1 mph - 0.00 in   Overcast
5:49 PM 60.8 °F 53.6 °F 77% 29.57 in 10.0 mi South 4.6 mph - 0.00 in Thunderstorm Overcast
5:53 PM 60.1 °F 53.1 °F 78% 29.57 in 8.0 mi SSE 5.8 mph - 0.01 in Rain , Thunderstorm Light Rain
6:30 PM 60.8 °F 55.4 °F 82% 29.56 in 10.0 mi Variable 3.5 mph - 0.01 in Rain , Thunderstorm Light Rain
6:51 PM 60.8 °F 55.4 °F 82% 29.55 in 7.0 mi SSE 6.9 mph - 0.02 in Rain Light Rain
6:53 PM 60.1 °F 54.0 °F 80% 29.55 in 7.0 mi SSE 6.9 mph - 0.02 in Rain Light Rain
7:08 PM 60.8 °F 53.6 °F 77% 29.55 in 10.0 mi South 6.9 mph - 0.00 in Thunderstorm Overcast
7:23 PM 60.8 °F 53.6 °F 77% 29.54 in 10.0 mi SSE 4.6 mph - 0.00 in   Overcast
7:53 PM 60.1 °F 54.0 °F 80% 29.52 in 10.0 mi SE 5.8 mph - 0.00 in   Overcast
8:53 PM 60.1 °F 53.1 °F 78% 29.47 in 10.0 mi ESE 9.2 mph - N/A   Mostly Cloudy
9:53 PM 62.1 °F 51.1 °F 67% 29.44 in 10.0 mi SE 9.2 mph - N/A   Overcast
10:53 PM 64.0 °F 48.9 °F 58% 29.46 in 10.0 mi South 8.1 mph 18.4 mph N/A   Overcast
11:53 PM 60.1 °F 52.0 °F 75% 29.49 in 10.0 mi SW 13.8 mph 21.9 mph 0.02 in Rain Light Rain